C/2008 N1 ( Holmes )

Japanese version
Home page
Total 6,336 html files since Dec. 4, 1995
Updated on October 12, 2008

---------------------------------------------------------------------

* Profile

Discovery Date July 1, 2008
Magnitude 20.2 mag
Discoverer Robert E. Holmes, Jr. (Charleston, IL, U.S.A.)

* Pictures

* Orbital Elements

Epoch 2009 Sept. 6.0 TT = JDT 2455080.5
T 2009 Sept. 25.91496 TT                                MPC
q   2.7834945            (2000.0)            P               Q
z  +0.0010641      Peri.  100.81928     -0.20619670     -0.97770033
 +/-0.0000331      Node   357.47153     -0.73284754     +0.18126165
e   0.9970380      Incl.  115.51887     +0.64839603     -0.10604850

* Finding Charts

* Magnitudes Graph

        m1 = 8.5 + 5 log d + 10.0 log r

---------------------------------------------------------------------

The orbital elements are published on M.P.E.C. 2008-R70.
The charts are made with StellaNavigator Ver.8 (AstroArts).
The magnitudes graphs are made with Comet for Windows.

---------------------------------------------------------------------

Copyright(C) 1995-2008 Seiichi Yoshida (comet@aerith.net). All rights reserved.